Location: Baia de Cri?
(46.1667°N, 22.7167°E)
Time: 20:59:04
(UTC+00:00)

TIMED - Pass Details

Date: 15 January 2026
Orbit: 581 x 584 km, 74.1° (Epoch: 10 February)

Event Time Altitude Azimuth Distance (km) Brightness Sun altitude
Rises 04:20:20 0° 208° (SSW) 2,788 7.8 -18.1°
Reaches altitude 10° 04:22:33 10° 212° (SSW) 1,893 6.9 -17.7°
Maximum altitude 04:26:45 63° 294° (WNW) 654 4.3 -17.0°
Drops below altitude 10° 04:30:58 10° 16° (NNE) 1,910 7.1 -16.3°
Sets 04:33:13 0° 19° (NNE) 2,815 8.0 -15.9°
